Вернуться в каталог

STARLINK-31560

АктивенСвязьVLEO
NORAD 59361·PAYLOAD·🇺🇸 United States

Запущен Mar 31, 2024 с Cape Canaveral Space Force Station

Loading…

Ближайшие Пролёты (ближайшие 24 часа)

TLE

СвежийSource: CelesTrak SupGP

Эпоха: Sep 14, 2026, 14:52 UTC

1 59361C 24060P   26257.61993056  .00010299  00000+0  37314-3 0  2575
2 59361  42.9992 273.0326 0001549 276.1766 148.7050 15.27564799    19

Отслеживайте STARLINK-31560 в реальном времени с AllMySat

Download on the App Store